Wind_Speed
13 13 13 14 14 14 15 16 16 17 18 19 19 20 20 20 21 21 21 20 19 19 17 16 14 14 13 14 16 17 16 13 9 10 11 11 10 10 9 8 9 11 12 13 14 14 15 14 12 13 13 13 13 15 16 15 16 11 3 5 7 6 6 6 7 6 5 4 7 13 12 8 9 17 18 10 7 10 4 5 2 13 17 21 26 37 38 33
14 14 14 15 15 16 16 17 18 18 18 19 19 19 20 20 20 21 22 22 21 20 18 17 15 13 14 14 15 18 17 15 14 13 10 9 10 8 7 6 7 9 11 12 13 13 13 11 10 11 11 11 11 13 13 14 16 12 3 5 8 5 5 7 9 8 7 7 8 13 17 16 12 11 16 12 7 9 8 6 1 9 18 25 36 39 37 36
14 14 15 15 15 15 16 16 17 17 17 18 18 18 18 18 18 19 19 20 20 20 20 18 17 15 14 14 15 17 18 17 15 10 3 3 5 4 3 3 5 8 8 9 12 13 12 10 10 9 7 7 12 16 13 12 14 14 10 6 7 5 4 9 13 14 16 13 8 14 23 22 22 17 13 11 4 5 8 9 4 10 23 33 40 40 37 37
13 13 14 14 15 16 16 17 18 19 20 20 20 20 20 20 20 20 19 19 18 18 19 18 17 16 15 14 15 16 17 17 10 0 4 3 2 2 2 3 6 10 9 7 8 11 11 11 10 6 5 6 11 16 12 15 14 11 12 8 5 7 5 10 16 20 22 19 16 19 21 18 22 20 15 11 6 3 8 15 12 15 32 38 40 41 38 36
13 14 15 16 17 18 20 21 22 23 23 24 24 24 24 23 22 22 22 22 20 18 17 16 16 16 16 14 13 14 13 10 1 5 4 2 3 5 4 4 7 11 10 8 6 8 9 11 10 5 4 4 6 10 12 21 17 6 11 12 9 9 5 11 19 21 23 24 24 20 15 14 15 16 16 15 8 9 13 15 20 27 36 39 40 41 38 38
15 16 17 18 19 20 21 22 23 24 25 25 25 25 25 24 24 23 23 24 23 22 18 15 14 14 15 14 14 12 6 3 3 1 3 5 7 6 5 6 9 10 8 5 4 5 6 7 6 4 3 3 4 7 12 22 20 8 10 13 14 15 9 11 19 20 24 25 20 17 18 20 13 13 17 17 12 15 24 21 22 32 36 39 41 41 40 38
16 17 18 19 20 21 22 23 23 24 25 25 26 26 25 25 24 23 23 23 22 23 21 18 15 12 12 12 12 10 7 11 9 8 9 8 7 7 6 8 9 9 7 3 3 3 2 4 5 5 3 3 6 7 10 16 19 13 10 11 15 20 19 18 19 18 23 24 20 20 21 21 16 14 19 23 21 19 23 24 23 33 36 40 43 41 40 38
17 18 19 20 20 21 23 23 24 25 26 27 27 26 25 24 23 22 22 22 22 21 20 19 17 14 11 9 8 7 11 13 8 5 6 4 5 7 7 7 8 8 7 4 4 2 2 5 6 6 3 4 7 8 10 10 13 15 13 13 14 20 24 25 25 23 22 21 21 17 16 20 22 19 18 21 23 21 22 24 26 33 35 39 44 41 40 39
17 18 18 20 21 22 23 24 25 26 27 28 28 27 26 25 23 21 19 20 20 20 19 18 17 14 10 8 5 5 9 6 2 3 1 1 5 8 8 8 7 6 7 5 4 3 5 6 5 5 4 6 8 10 13 7 6 13 15 16 14 17 21 23 24 25 25 26 22 12 12 20 24 20 15 21 24 23 26 27 29 36 39 42 43 40 41 40
17 17 18 20 21 23 24 25 26 28 29 30 30 29 27 26 25 22 19 17 17 17 17 16 17 14 10 8 2 1 7 4 6 7 4 1 5 7 8 10 7 5 6 7 6 6 8 7 7 9 9 9 7 9 13 9 9 14 14 14 15 18 19 21 23 25 24 27 27 14 9 18 23 17 10 21 30 31 28 24 33 42 45 46 43 41 40 38
18 19 20 21 22 24 25 26 27 29 30 31 30 29 28 27 26 25 21 16 14 15 15 15 15 14 12 8 4 5 6 4 7 8 5 7 9 7 6 7 7 7 8 10 10 9 9 8 9 10 7 5 6 10 12 12 15 18 16 13 13 17 19 19 20 26 23 20 29 21 11 16 21 15 14 25 34 39 34 23 38 45 46 48 45 43 41 39
19 20 21 22 23 24 26 27 28 29 30 30 29 27 26 25 23 22 20 15 14 13 13 13 13 14 13 11 15 13 11 9 10 13 15 14 12 10 7 8 11 12 12 13 12 11 10 9 9 9 7 5 6 7 9 12 14 15 11 7 9 11 15 19 18 25 22 17 31 26 11 13 15 18 27 34 36 39 34 23 41 44 44 47 44 44 42 40
20 21 21 22 23 24 25 26 28 30 30 29 26 24 22 21 19 17 16 14 13 11 12 12 13 15 12 15 20 15 12 15 17 21 23 19 15 14 12 11 14 15 14 13 12 11 12 11 10 12 12 8 6 6 11 15 15 11 7 3 5 7 8 18 20 25 20 19 34 26 10 11 12 20 32 37 39 40 35 25 40 43 41 44 43 45 43 42
21 21 21 22 23 24 25 27 29 30 29 27 24 22 18 16 14 13 12 11 9 8 10 12 13 12 10 17 18 7 4 9 13 15 17 20 19 18 17 15 16 17 15 13 11 8 10 12 12 14 13 8 7 10 12 11 8 4 5 3 5 6 6 14 19 22 18 19 32 22 10 12 11 18 30 36 39 37 34 28 34 41 41 43 43 43 44 45
21 21 21 22 23 24 25 27 29 28 27 24 21 18 14 11 10 10 9 8 7 7 9 10 11 10 13 18 12 2 0 5 5 7 6 12 15 16 17 16 15 14 13 14 11 8 7 8 11 11 9 8 8 8 6 4 3 0 3 5 5 7 7 11 16 20 18 18 25 18 9 13 12 17 26 32 36 32 29 27 28 38 41 42 43 40 40 43
21 21 21 22 24 24 25 27 28 26 24 22 20 14 10 9 8 9 9 7 8 8 8 8 9 8 9 11 6 2 5 6 7 10 4 4 5 6 7 8 10 10 11 13 13 11 10 10 12 11 8 7 4 2 2 4 3 1 3 5 7 10 9 8 12 19 21 17 18 16 10 11 10 17 25 26 28 28 25 23 24 37 40 40 43 43 41 39
20 20 21 22 23 23 25 26 25 23 21 21 19 12 7 8 7 7 7 7 10 11 10 7 7 9 9 7 4 6 10 10 14 14 4 3 2 1 2 6 9 9 9 10 11 15 16 12 9 8 5 4 2 2 2 4 5 3 3 5 8 12 11 9 9 14 21 17 15 15 13 13 7 13 27 28 22 22 24 24 21 34 40 40 42 43 41 39
18 19 21 22 23 24 25 24 21 20 20 20 17 11 7 8 6 3 4 11 14 11 9 4 2 5 7 5 6 12 16 15 18 12 4 3 2 3 5 8 9 9 8 6 6 13 16 10 5 4 3 3 3 3 5 8 8 7 6 4 6 10 11 11 11 11 16 17 16 14 14 16 10 8 20 28 24 18 21 24 21 31 40 40 40 40 40 42
17 18 21 22 22 24 24 21 18 19 19 18 16 11 8 11 7 2 6 18 15 7 5 4 4 4 9 14 18 22 22 18 18 10 4 4 4 4 6 9 10 10 6 2 2 7 10 6 3 4 3 5 7 8 10 11 10 8 6 4 5 8 9 10 10 10 12 14 14 14 14 15 13 11 11 19 23 18 20 21 18 28 36 39 40 39 40 42
16 18 20 21 22 23 22 18 16 17 17 18 20 17 15 19 10 2 16 26 16 10 13 15 16 17 22 28 27 24 21 15 15 14 8 8 7 6 8 9 9 8 4 2 2 2 4 4 3 5 6 8 8 8 11 11 9 8 7 6 6 7 8 8 9 10 10 11 12 14 16 17 15 13 11 16 18 13 15 16 15 25 30 34 38 40 42 45
16 17 19 21 21 22 20 16 15 15 15 17 21 19 16 19 10 7 21 26 19 14 17 19 19 25 29 31 29 24 20 15 16 17 13 10 9 6 5 5 5 4 4 5 4 4 3 3 5 8 9 9 8 7 8 10 10 9 8 7 7 7 7 7 9 11 10 8 11 15 18 20 17 11 11 17 15 11 14 14 14 25 30 32 35 37 43 45
16 17 19 20 20 21 19 15 14 13 12 14 17 15 13 15 11 11 16 18 22 19 15 16 15 22 26 26 25 22 17 15 18 17 11 9 8 5 4 3 3 3 4 4 4 4 3 4 9 11 10 8 8 8 9 10 9 8 8 7 7 5 5 9 10 11 12 7 7 14 19 20 18 13 11 15 15 17 24 23 20 26 31 33 34 34 36 35
16 17 19 19 19 20 16 13 12 9 10 12 13 12 9 11 12 14 14 11 16 15 11 10 9 15 17 13 12 12 14 13 16 17 12 9 9 7 6 3 3 4 3 3 4 4 3 6 10 10 8 8 9 10 10 10 7 6 7 7 8 7 5 5 8 9 10 10 9 11 14 15 14 13 11 14 19 24 31 32 30 29 32 38 42 40 38 35
16 16 18 19 19 18 14 12 11 8 8 9 10 9 5 9 13 16 15 6 7 10 9 6 5 8 9 8 7 5 14 13 12 13 9 9 13 11 8 6 5 5 4 4 4 5 6 9 10 8 7 9 11 11 10 8 6 7 9 8 9 10 8 6 7 9 7 10 15 12 10 9 10 12 10 13 18 23 30 30 28 30 34 40 44 42 42 42
16 16 17 19 18 15 11 10 11 8 7 8 10 9 6 9 13 16 14 3 4 8 6 6 4 6 9 8 6 7 12 12 13 13 11 13 14 8 7 10 8 5 6 6 5 4 8 12 11 8 8 10 11 11 11 8 5 7 9 10 11 12 12 10 11 10 6 6 13 14 12 9 8 12 13 12 13 16 21 20 21 28 31 34 41 41 40 43
16 15 16 18 16 14 9 8 11 9 7 9 12 12 11 11 13 15 9 2 2 5 4 5 3 7 10 7 8 9 9 7 9 11 11 14 15 10 7 6 5 5 6 5 4 3 7 11 9 8 9 10 10 11 11 10 6 6 7 9 12 13 14 14 13 8 3 5 8 12 13 10 7 9 12 13 14 15 16 13 17 27 28 30 40 44 43 43
16 15 16 16 15 13 8 7 11 10 9 10 12 13 14 13 14 13 5 3 4 4 3 4 2 7 10 9 12 8 4 6 7 9 11 11 14 13 8 5 4 4 4 2 2 3 4 7 7 8 9 8 8 8 10 10 7 6 8 9 11 12 14 16 14 10 5 7 10 10 10 10 8 7 9 13 16 17 17 14 14 21 28 33 39 43 46 48
16 15 14 14 12 10 8 7 10 11 10 11 12 14 15 15 14 9 3 4 3 4 2 3 3 8 14 16 17 10 7 10 6 6 10 7 8 8 6 6 6 5 4 4 5 4 2 6 7 7 8 6 6 8 9 10 8 8 9 10 11 11 12 12 11 9 8 7 9 10 8 8 8 6 7 12 16 17 18 19 16 17 25 32 37 43 47 51
16 15 13 12 11 9 7 8 9 11 12 11 13 14 14 13 11 3 4 2 3 2 1 3 4 10 16 16 14 13 13 10 3 5 10 7 6 5 3 5 4 5 5 6 8 7 4 8 9 5 5 4 6 9 9 10 10 10 11 10 10 10 11 11 9 8 8 8 10 11 8 6 6 6 8 10 13 15 15 17 16 16 23 29 36 44 48 50
15 13 12 10 9 9 7 7 10 11 13 13 13 14 12 8 4 3 4 1 1 2 2 3 4 9 13 9 8 11 9 10 11 11 14 12 11 10 7 8 6 4 5 6 9 9 7 11 11 6 6 7 9 11 10 10 12 12 10 10 8 7 8 8 6 7 8 7 10 15 13 8 6 5 8 10 12 16 14 11 11 13 21 28 34 42 46 49
13 11 10 8 8 9 8 7 9 10 12 13 13 12 8 3 2 4 2 1 2 4 4 3 4 8 9 6 6 7 5 8 10 7 7 8 8 6 4 6 5 3 4 5 7 7 7 10 8 8 12 12 10 10 12 13 13 11 7 7 6 5 5 5 5 6 7 7 9 13 14 11 8 6 7 11 14 17 15 11 10 11 18 27 31 36 42 47
11 9 8 7 8 9 10 10 9 10 11 11 12 10 4 3 3 1 2 3 2 2 3 3 5 7 10 9 6 6 4 4 5 5 4 3 3 2 3 4 1 1 4 5 4 4 5 7 6 9 15 13 7 6 9 10 9 9 6 5 5 4 4 5 6 5 6 7 9 11 11 10 9 7 9 15 15 14 14 15 16 14 18 27 33 35 40 45
9 8 6 5 8 10 11 12 11 11 11 10 11 8 3 4 2 2 3 4 1 1 3 4 7 9 11 8 4 5 4 3 4 4 3 1 2 4 4 5 5 3 3 4 3 4 4 5 7 7 9 11 9 6 6 6 4 6 6 5 5 5 5 5 5 5 5 7 12 14 11 7 7 7 10 16 15 13 15 20 24 24 26 32 37 40 43 45
8 7 5 5 8 10 11 12 11 11 10 11 8 5 5 4 2 3 3 3 2 4 4 4 9 12 7 4 4 1 1 3 3 2 2 1 1 2 3 5 8 6 4 4 4 4 3 5 6 6 4 6 9 8 8 7 5 5 6 6 6 5 4 4 4 4 5 6 11 13 9 6 6 7 10 14 15 17 21 23 26 29 33 37 39 41 42 44
8 7 5 5 7 9 11 12 11 9 9 10 6 4 4 1 3 3 3 3 2 5 6 7 8 8 5 3 3 2 4 2 4 1 3 3 2 3 3 4 9 9 7 5 3 3 4 6 5 6 6 4 5 7 8 7 5 5 5 5 6 6 4 4 5 4 4 5 8 8 6 5 6 7 8 11 13 16 21 24 24 26 31 34 35 37 41 44
7 8 6 4 5 8 11 12 9 6 7 7 5 3 1 2 3 2 2 3 3 5 9 9 4 3 4 3 3 3 4 1 4 4 3 4 4 5 4 3 8 11 8 4 2 2 4 5 3 3 6 6 6 8 7 6 4 3 3 4 6 6 5 4 5 3 1 4 6 5 4 5 6 8 8 8 13 14 15 20 21 23 28 30 31 35 39 43
6 8 7 4 4 6 9 11 8 5 5 6 4 1 2 3 3 2 3 3 2 4 6 5 1 1 3 2 3 3 1 1 3 4 2 3 3 5 6 5 8 12 10 7 3 1 3 5 5 4 7 8 8 9 8 9 8 4 3 3 2 3 4 2 3 2 1 2 4 6 7 5 5 7 6 5 12 15 15 16 17 22 25 26 31 35 37 42
8 8 6 3 3 5 7 10 7 3 3 4 1 2 2 3 4 6 7 4 1 2 3 2 2 2 2 3 3 3 3 3 2 2 3 2 3 4 3 4 9 12 14 12 4 2 2 3 6 5 7 7 7 6 5 7 9 8 4 2 2 1 2 2 2 2 2 2 3 5 8 7 5 5 6 6 10 15 17 16 18 20 20 22 30 35 37 42
9 9 4 2 4 5 6 9 6 2 3 3 1 2 2 4 8 12 14 6 3 1 3 3 3 3 2 3 4 3 4 5 3 1 2 2 2 5 3 3 7 11 15 14 6 1 2 1 4 4 3 2 3 2 2 4 4 3 2 2 1 2 2 2 2 2 2 1 3 3 5 6 6 5 7 9 9 12 15 15 16 18 20 25 32 35 38 43
9 7 1 2 4 5 7 9 4 1 2 1 2 3 3 4 10 17 16 8 5 3 3 3 3 3 4 4 5 5 3 5 5 1 2 2 2 5 6 5 4 8 15 15 7 1 2 2 2 4 3 2 1 3 3 3 2 1 2 2 2 1 1 2 3 3 3 2 1 3 4 5 5 5 7 10 10 10 11 12 12 12 19 29 34 38 42 44
9 5 1 4 5 6 9 8 2 1 1 1 2 3 4 6 10 16 14 11 9 7 7 5 4 4 4 4 5 5 3 5 4 3 3 4 3 3 5 7 5 4 8 11 6 2 1 1 1 4 4 1 4 5 2 1 2 3 4 4 3 3 2 3 2 3 5 4 2 3 5 6 6 5 7 10 9 10 10 10 9 10 19 29 34 40 44 45
11 3 2 5 5 7 8 4 1 1 2 3 5 5 9 10 9 12 9 9 8 7 7 6 6 5 4 4 5 5 5 6 4 3 4 5 6 5 6 9 8 3 5 5 2 1 2 2 0 3 5 6 11 11 8 7 6 4 3 2 2 1 2 2 2 2 4 3 3 3 5 7 7 6 9 10 9 10 11 10 8 12 20 28 34 40 43 45
13 6 3 3 4 7 6 2 2 1 2 6 8 9 13 10 6 8 7 4 5 3 3 3 4 4 3 2 3 5 6 5 5 5 5 4 5 11 17 16 9 4 4 4 1 1 3 2 1 3 5 7 11 10 8 8 3 2 3 1 3 1 2 3 3 2 3 2 2 2 5 8 7 3 4 12 13 11 10 12 13 14 19 24 32 39 42 46
13 9 5 1 4 5 4 1 3 3 4 7 8 10 13 9 6 8 8 3 3 3 1 3 4 4 4 3 3 6 6 4 4 6 5 4 3 9 20 20 8 1 4 6 4 4 2 2 2 2 3 2 1 1 3 5 1 2 3 2 3 4 4 3 4 3 4 3 3 2 5 8 6 6 6 9 13 12 10 13 18 17 19 24 30 38 43 46
11 6 6 4 6 6 4 4 4 4 5 7 9 10 9 6 8 13 12 8 4 5 3 3 3 4 4 4 5 8 7 5 4 5 4 5 5 2 7 13 9 3 7 14 14 10 4 2 3 2 2 3 3 3 3 3 2 2 2 1 1 5 5 3 1 3 5 4 2 3 6 8 9 9 10 12 10 9 10 11 15 18 22 27 29 34 40 42
7 3 5 7 5 5 7 8 7 5 4 7 8 7 6 6 10 15 15 9 4 4 4 4 3 3 4 4 6 8 6 6 6 5 5 6 4 2 1 6 12 12 13 17 18 11 3 2 4 4 4 4 4 4 4 3 2 3 3 2 2 6 8 3 1 3 6 4 4 6 6 7 11 11 10 13 12 8 8 8 10 13 20 26 29 32 38 41
5 1 3 6 6 5 5 7 9 7 5 6 4 4 7 8 8 12 15 10 5 2 3 3 2 2 4 4 4 6 6 6 6 6 6 6 4 5 9 8 12 20 20 18 20 12 2 2 5 6 7 7 5 5 6 5 4 4 3 2 3 6 7 3 3 6 6 4 6 8 4 4 8 9 9 12 13 9 8 7 8 16 21 25 28 32 36 39
6 2 3 5 4 2 3 8 13 13 10 7 3 3 7 9 8 9 13 13 10 3 1 3 3 4 7 5 2 4 7 8 5 2 3 4 3 6 9 7 3 5 10 11 15 11 1 1 5 6 7 9 7 6 7 4 4 4 4 4 5 5 5 3 6 9 7 5 6 7 6 6 7 7 8 9 11 8 9 11 6 16 23 23 26 31 33 36
9 4 5 9 6 5 8 14 18 14 10 7 3 3 7 10 11 10 8 10 10 3 2 4 10 9 7 5 3 3 4 5 6 3 2 4 4 4 4 5 8 8 4 3 7 8 2 1 4 5 4 5 5 4 2 1 2 4 4 5 6 5 6 6 7 10 9 8 6 5 9 9 7 5 7 11 14 13 13 14 6 9 19 23 26 30 32 36
11 7 9 13 9 9 12 14 13 9 7 6 4 5 8 9 11 13 11 10 9 5 2 7 15 16 8 6 6 6 7 5 7 7 4 3 4 3 2 1 2 5 3 0 4 7 6 2 1 1 1 3 4 3 3 2 2 4 3 2 3 3 5 5 5 5 5 6 7 7 8 8 6 4 4 11 17 17 16 13 13 8 11 22 25 27 31 35
10 8 9 10 7 7 9 11 9 5 4 4 5 6 9 9 12 15 13 12 9 7 8 12 17 15 7 4 7 10 13 11 11 15 14 9 7 6 4 3 3 5 5 3 2 2 4 2 1 3 3 4 5 6 7 5 2 2 2 3 3 3 4 5 5 3 4 5 3 3 4 5 5 4 3 7 11 12 12 9 12 14 4 18 22 23 30 34
12 11 10 8 5 4 7 9 8 5 3 5 7 9 9 11 16 16 11 9 14 19 19 17 16 12 6 5 8 15 21 20 19 23 23 19 16 15 13 12 9 4 3 3 3 1 1 1 1 1 2 4 6 7 9 5 3 1 2 0 1 4 4 6 6 5 6 5 3 3 4 7 5 3 2 5 7 7 10 10 11 15 7 11 22 23 27 32
Wind_Direction
2 4 3 359 358 355 353 352 350 350 349 348 346 345 344 342 340 339 338 338 339 340 343 346 342 335 327 321 316 312 315 320 307 282 275 276 268 264 271 273 272 268 263 260 260 258 247 243 237 226 223 227 227 227 227 215 207 210 203 214 225 225 212 185 181 184 148 161 234 246 252 247 277 307 315 344 77 129 123 350 184 163 156 160 158 155 160 171
6 6 4 1 359 356 356 354 352 352 350 349 347 346 345 342 339 337 336 334 335 336 337 339 340 337 326 319 316 312 315 318 312 303 284 267 260 256 260 277 290 287 281 271 262 260 252 239 224 216 217 226 222 216 222 209 203 209 190 221 226 213 204 193 192 185 167 189 228 247 252 251 247 274 295 311 48 111 116 69 74 144 144 151 154 158 165 173
5 5 4 4 3 2 3 0 359 357 354 353 349 348 347 344 341 338 336 332 332 332 331 333 333 332 325 318 314 311 316 319 315 310 292 247 245 242 259 309 328 324 312 285 265 257 250 231 213 218 226 235 219 209 212 200 201 211 209 233 227 198 214 209 199 199 200 198 207 241 249 253 251 247 261 290 20 115 137 127 149 143 145 152 156 163 169 175
8 10 12 12 11 10 8 6 3 359 357 354 350 349 347 346 344 339 337 333 331 329 328 329 327 326 321 319 316 313 322 325 314 218 110 109 93 33 338 328 332 338 339 314 277 259 252 228 217 239 254 261 231 216 213 201 198 205 209 229 212 178 218 220 203 203 204 201 209 229 238 245 256 250 230 246 283 250 179 165 195 179 158 159 161 166 172 178
17 17 16 13 11 9 6 4 1 358 355 352 349 347 344 344 341 338 335 333 332 329 328 326 325 322 315 316 312 311 328 334 288 130 95 55 0 356 332 298 316 328 330 326 294 257 248 228 226 256 258 266 240 222 223 212 206 215 223 226 208 186 205 223 214 209 200 200 213 222 227 231 249 254 227 215 218 246 243 204 198 189 171 168 169 170 175 179
15 13 10 8 6 5 3 1 359 356 353 350 347 343 341 339 336 333 330 329 328 326 329 326 321 314 308 310 309 310 319 275 222 190 328 314 311 310 306 300 309 313 309 321 295 244 234 226 229 257 252 262 258 234 233 221 213 230 241 225 211 206 212 221 221 218 204 203 213 214 220 226 236 260 248 236 227 234 247 239 201 191 185 177 172 173 176 180
8 7 6 4 3 2 0 358 355 353 351 347 344 341 338 334 331 327 323 323 321 322 325 325 323 313 300 298 300 300 266 259 274 286 287 290 293 293 300 299 302 299 286 282 251 212 222 254 253 270 272 273 278 262 254 238 223 229 240 226 212 213 219 223 227 225 213 213 220 217 215 214 215 238 244 244 246 234 236 246 220 196 189 178 173 176 180 184
2 2 2 1 360 358 356 353 352 350 347 344 341 338 334 330 325 320 316 314 314 316 318 320 323 318 309 301 300 294 272 276 284 277 273 265 286 308 310 297 296 284 264 242 224 210 305 293 277 273 252 241 274 278 283 277 237 234 234 226 218 216 221 224 230 236 233 237 236 229 221 210 206 216 230 239 242 231 223 236 221 194 187 181 177 180 182 185
358 357 356 356 354 353 351 349 347 346 344 341 338 335 331 328 323 317 309 304 307 311 311 315 316 313 313 308 315 304 279 272 181 165 142 31 320 323 320 312 306 275 254 240 229 251 282 288 276 273 291 284 283 274 276 283 235 242 239 230 225 221 224 221 228 238 242 250 249 243 238 222 208 207 231 246 246 240 223 221 216 196 189 187 181 182 183 184
350 350 350 348 348 347 346 345 344 343 342 340 337 333 329 325 322 320 312 303 302 305 305 307 311 310 302 298 309 278 270 220 159 155 142 291 297 300 310 319 315 277 261 254 236 244 266 275 277 287 304 302 292 277 270 261 261 278 278 263 243 230 226 218 221 232 236 246 247 239 241 229 212 204 221 234 241 251 242 216 207 198 188 187 183 184 186 186
344 345 345 345 344 343 343 343 342 342 340 339 337 333 329 325 323 322 320 313 302 301 299 301 308 304 299 295 239 236 269 219 182 182 205 270 266 265 291 299 290 277 281 278 250 238 256 267 280 290 297 300 310 307 289 267 273 290 302 303 267 241 230 219 216 224 225 238 244 237 234 231 218 214 217 224 234 244 244 204 188 192 186 187 186 185 188 189
344 344 345 345 343 341 342 342 340 339 338 338 336 333 328 325 324 323 321 316 306 302 298 298 298 294 300 281 249 260 285 260 232 235 249 263 253 240 242 248 261 269 280 285 262 239 240 257 281 288 287 306 328 325 301 289 301 306 302 311 286 261 233 223 218 222 220 222 236 238 239 230 217 218 217 225 236 241 243 202 180 189 188 187 186 184 187 190
345 347 348 346 342 341 342 340 338 338 338 338 338 335 330 327 326 322 318 313 310 307 303 299 291 294 294 271 269 286 296 270 252 248 249 253 249 236 228 239 259 268 271 274 268 248 235 243 270 287 294 300 301 296 295 300 316 321 297 263 263 282 236 220 219 223 225 218 225 232 243 231 215 218 213 217 231 238 244 213 182 188 190 187 187 185 188 190
345 348 348 343 341 341 341 339 338 339 340 342 343 340 336 334 327 321 320 318 319 313 309 307 301 302 278 277 297 315 307 285 266 260 253 248 246 240 239 248 261 268 266 262 269 267 243 239 260 284 288 278 281 293 299 303 314 323 298 276 216 246 236 214 212 217 226 223 219 222 242 236 220 219 212 213 224 228 236 223 185 184 189 188 188 187 189 191
343 345 344 341 340 341 341 340 339 341 344 346 347 346 345 340 328 330 336 331 325 319 325 322 315 312 280 290 322 94 330 342 311 317 287 248 245 243 247 253 259 264 265 260 261 268 260 249 256 272 276 269 288 298 304 313 303 137 248 257 210 222 238 220 212 210 218 226 217 214 237 239 231 225 213 212 222 222 229 231 196 184 188 187 188 189 191 193
341 343 342 339 339 341 342 340 341 344 348 351 349 349 349 335 327 341 346 338 329 327 336 335 333 332 284 294 352 48 331 347 341 343 320 251 260 244 245 260 270 272 272 267 258 252 251 254 256 261 265 266 278 264 304 320 289 203 189 234 225 218 226 222 219 211 212 222 216 209 228 238 230 232 226 217 219 217 222 234 202 185 190 188 187 189 191 192
341 341 340 338 340 343 342 342 345 349 354 356 351 349 351 337 340 5 13 2 343 329 322 321 336 320 273 274 338 349 347 345 340 337 281 232 352 304 280 275 284 284 276 273 256 242 239 241 242 248 252 232 195 149 229 267 253 251 210 229 242 228 222 213 215 213 211 217 219 213 226 234 220 228 236 233 223 210 215 232 207 183 190 191 188 189 189 188
340 340 339 339 341 344 345 346 349 353 356 1 360 356 349 339 350 47 25 348 336 324 314 297 336 311 274 270 301 321 336 334 333 332 226 217 307 297 284 269 281 288 288 293 242 222 223 226 200 204 233 201 191 162 200 226 223 227 214 216 257 245 232 217 211 211 207 213 221 221 230 235 225 217 233 235 227 208 213 229 212 186 190 192 190 189 188 186
340 340 340 341 343 345 347 349 353 357 360 9 14 12 12 4 8 148 319 330 324 309 305 269 224 268 282 279 285 303 313 313 323 327 209 245 288 267 264 266 279 283 290 328 234 204 198 204 181 189 218 209 208 200 209 225 223 232 234 226 257 255 247 233 224 221 208 212 219 224 237 239 229 221 226 232 227 217 221 228 204 187 190 190 190 191 188 187
339 341 340 342 345 347 349 352 357 2 9 19 21 22 23 12 11 250 320 323 308 277 269 265 257 257 269 276 283 301 306 298 313 321 299 292 292 268 259 257 267 273 265 219 251 256 200 199 212 210 223 228 229 226 229 239 244 258 265 256 260 262 266 254 236 229 213 214 216 218 236 239 230 223 218 225 228 222 226 227 194 184 188 188 191 191 189 191
340 341 340 343 347 348 352 357 359 8 23 28 24 26 22 11 3 318 329 324 316 304 277 273 267 256 261 271 279 293 303 298 300 312 312 296 285 272 262 246 248 265 254 229 240 285 250 208 230 228 227 231 240 250 251 254 255 259 263 265 263 256 271 279 258 238 217 214 217 214 229 238 231 226 219 220 227 231 228 226 200 186 186 190 194 193 191 193
340 341 340 344 348 350 354 2 3 12 31 33 29 28 20 13 357 325 331 318 317 325 301 292 277 261 266 271 277 280 283 287 286 295 306 296 280 238 211 203 217 244 245 228 228 269 281 240 239 237 233 233 238 246 251 254 251 248 253 260 264 261 275 291 284 249 224 219 224 215 225 235 229 223 225 220 221 232 233 231 218 196 185 189 195 194 192 191
340 341 340 343 349 353 358 9 9 14 36 38 28 23 14 8 349 324 326 306 306 325 324 309 275 271 285 289 294 271 249 256 268 279 288 283 267 234 215 211 237 256 245 207 196 214 244 243 242 239 235 234 237 241 243 251 253 242 243 244 251 258 253 270 288 266 234 225 230 224 228 236 231 223 225 227 223 227 233 233 228 214 195 192 194 192 191 188
338 341 341 343 350 356 2 14 17 17 30 31 16 13 356 345 341 331 335 312 283 320 348 352 300 295 316 330 342 252 233 236 243 268 281 261 255 244 229 229 244 262 247 232 218 212 234 244 243 237 224 224 232 238 236 240 250 243 240 239 243 249 244 242 270 287 283 240 227 228 242 243 226 219 221 227 225 225 228 227 224 218 204 196 195 192 190 188
337 342 342 343 350 358 3 16 24 22 21 21 9 2 349 334 329 331 341 339 270 308 348 14 346 332 338 329 317 249 240 246 243 260 270 252 248 239 224 223 225 248 240 239 253 250 254 255 252 245 230 223 225 233 231 225 237 246 239 238 241 246 248 248 258 277 311 266 224 213 233 244 215 210 214 217 220 224 225 219 214 215 205 192 191 192 190 189
336 342 343 342 349 357 4 22 24 24 23 13 5 1 356 342 326 327 342 41 314 306 336 7 2 342 342 332 313 279 255 265 260 267 268 251 244 241 240 222 203 230 227 224 256 248 250 254 253 251 244 235 230 232 230 221 227 245 232 232 239 241 244 247 253 259 259 272 245 217 224 236 223 212 210 210 215 221 221 213 209 212 205 190 188 190 187 187
336 343 345 343 346 355 8 27 21 24 19 357 353 352 346 339 328 326 345 72 350 318 324 349 353 337 334 327 328 314 258 306 310 279 265 250 243 236 233 237 226 229 199 160 266 227 236 258 255 258 258 246 238 237 230 219 222 243 231 227 234 235 239 240 245 250 241 271 282 262 242 233 228 225 211 206 212 220 220 217 212 206 201 193 188 188 186 186
336 343 347 343 344 351 357 7 14 15 1 342 343 343 335 331 325 326 55 92 331 316 333 333 324 333 331 325 321 316 303 317 326 270 258 244 235 223 215 239 243 237 195 166 240 245 236 257 251 257 265 257 244 241 230 218 223 240 232 229 235 237 243 242 239 244 243 256 276 277 267 240 228 228 214 203 207 218 221 220 219 204 196 191 187 187 187 188
336 341 348 344 343 348 343 348 3 359 344 339 343 337 328 324 318 331 87 85 300 303 328 326 333 332 333 332 320 313 315 312 292 261 278 275 254 246 242 251 256 266 235 195 233 249 226 250 263 266 266 273 266 256 237 218 222 237 233 233 240 239 246 248 239 239 240 238 251 261 263 252 237 217 208 205 206 212 216 220 220 202 192 188 186 188 188 188
335 340 349 347 347 350 342 344 351 347 341 339 333 326 322 319 324 62 52 2 248 313 318 324 338 325 323 327 307 301 299 286 279 278 284 282 272 274 270 266 281 286 257 233 244 251 250 266 278 274 253 261 272 276 270 242 224 227 230 233 245 244 244 252 241 229 235 234 239 248 250 251 255 222 201 207 211 210 209 215 219 197 189 190 189 190 187 187
333 341 352 356 359 356 351 348 343 346 347 335 324 324 328 335 67 82 34 263 241 319 333 317 314 320 315 309 296 291 275 275 278 267 268 271 270 283 272 267 288 284 259 259 258 265 263 263 269 257 250 257 269 283 287 269 236 220 219 215 231 249 247 257 244 217 225 235 231 238 246 246 250 244 213 214 217 213 204 198 205 201 194 194 194 194 190 187
333 344 359 4 4 359 355 349 346 359 355 334 328 333 354 46 29 95 257 304 305 307 324 310 313 322 313 306 288 268 259 261 249 220 225 238 242 246 202 214 200 179 248 245 262 295 266 245 249 253 251 251 262 282 285 278 241 213 212 196 201 225 230 237 241 219 213 235 233 229 240 245 245 247 223 216 216 211 205 198 196 194 195 197 198 198 196 192
332 340 1 11 6 360 353 350 0 14 0 334 333 340 57 77 355 259 278 306 309 301 310 309 310 308 304 303 278 255 254 249 231 214 213 192 229 241 223 206 166 148 233 222 228 266 274 264 242 240 249 234 229 249 266 273 239 201 201 193 190 197 210 225 238 230 208 228 240 232 233 247 256 255 224 214 210 199 203 207 204 201 198 200 201 201 201 197
326 329 352 10 3 355 350 354 7 14 352 335 344 12 61 62 274 283 307 274 272 307 306 317 312 304 295 266 251 278 336 276 256 181 187 163 234 247 240 212 185 180 229 227 211 208 243 281 232 208 219 203 209 222 228 246 259 226 200 194 200 195 205 224 221 221 206 218 236 232 226 223 230 241 221 211 208 200 202 208 211 213 209 205 203 201 198 197
327 321 333 356 360 350 349 359 7 3 343 340 5 62 62 28 258 294 300 253 287 301 294 302 300 296 300 267 257 26 54 304 292 293 205 187 194 222 230 211 193 194 213 222 219 190 215 259 242 221 233 223 235 244 238 248 261 252 218 196 206 197 199 241 227 210 200 213 230 225 219 221 227 250 238 212 206 202 206 208 208 215 217 211 207 200 194 195
330 325 318 324 346 344 349 360 2 345 340 2 36 58 78 217 241 273 261 259 301 306 306 305 278 262 310 306 297 356 66 172 283 307 243 212 222 212 208 212 195 195 198 196 230 194 201 256 281 280 268 257 252 259 262 257 252 274 245 217 224 201 188 242 253 247 192 217 232 219 227 251 249 266 270 223 205 202 208 213 208 209 213 211 209 203 195 194
325 328 315 298 329 340 348 354 346 324 353 37 66 325 242 231 251 243 247 268 293 301 308 312 283 225 287 291 296 304 306 198 289 313 268 238 257 220 205 216 203 200 198 186 216 225 182 263 287 277 274 277 274 276 275 253 239 247 250 254 276 194 168 202 253 279 302 227 240 218 220 241 232 249 272 220 202 206 210 215 213 209 207 203 205 203 196 194
333 337 321 289 321 331 340 345 333 314 17 52 37 281 225 228 246 246 260 261 206 280 279 271 259 224 236 283 290 269 275 282 286 297 276 245 263 251 210 203 204 206 200 184 191 269 177 266 285 258 249 278 299 294 286 260 234 221 241 328 37 164 184 161 207 249 236 247 277 221 210 220 217 235 256 224 203 210 211 211 212 210 205 200 201 199 193 192
346 346 337 311 321 312 325 334 327 342 42 60 319 284 239 251 265 274 279 261 165 227 255 236 235 238 251 261 267 276 280 274 257 251 267 195 230 273 265 219 214 210 199 182 180 251 118 136 287 280 256 295 313 259 241 279 253 221 278 326 121 190 205 183 212 241 207 225 299 245 213 223 220 216 237 236 219 213 211 208 210 207 200 197 197 195 191 190
351 348 346 299 298 282 308 322 325 58 53 41 259 257 263 273 279 288 282 243 184 197 229 233 221 248 276 259 266 281 266 267 267 223 228 199 210 280 261 222 231 224 201 185 171 123 73 102 256 292 333 6 293 216 189 213 211 172 243 231 188 209 256 244 236 234 215 187 253 266 251 248 238 210 224 241 233 214 204 198 204 200 191 192 192 191 191 190
2 356 289 293 272 265 307 319 307 143 151 258 250 243 279 282 284 293 276 224 213 222 221 242 240 242 277 276 275 281 270 277 263 197 234 226 184 269 259 218 227 248 193 180 171 135 129 143 232 297 325 324 251 263 279 251 216 186 200 200 182 193 233 275 262 233 232 207 179 260 273 265 249 202 212 246 245 228 215 196 199 198 185 185 187 190 191 190
6 5 302 311 282 280 306 314 264 188 166 276 280 268 287 286 280 292 269 210 213 232 227 244 253 252 271 271 275 285 289 289 269 221 240 232 187 189 248 248 238 219 135 146 173 133 118 118 147 282 274 257 266 275 284 285 270 236 221 187 150 184 211 246 265 249 249 227 189 243 279 277 260 209 204 232 241 239 227 199 201 217 201 189 187 189 189 188
354 345 336 315 286 302 315 305 312 322 208 276 286 283 292 287 264 292 292 210 192 221 239 247 246 247 248 250 282 302 303 289 267 252 239 238 209 207 230 247 247 206 128 103 73 73 84 102 203 281 281 270 276 278 277 280 263 206 247 149 121 225 236 233 252 247 256 253 173 226 278 270 275 305 235 231 233 244 238 208 206 227 222 203 191 188 187 186
344 344 11 345 267 298 323 293 310 316 290 295 302 299 294 275 253 289 299 260 190 164 213 255 232 225 243 242 244 272 287 271 257 263 255 265 273 228 230 233 233 201 136 139 160 172 150 145 184 280 309 305 293 280 275 296 355 158 231 190 167 228 261 288 296 281 268 251 164 181 262 254 276 343 335 271 249 250 253 225 214 221 223 212 197 189 186 185
350 354 19 349 268 263 280 291 298 303 316 325 319 309 301 281 288 306 305 285 238 170 188 256 237 225 254 263 260 265 255 227 246 277 281 290 311 305 221 215 216 211 169 172 172 164 162 175 171 196 181 143 157 180 201 259 312 290 241 190 216 254 261 262 300 294 275 269 205 206 243 269 298 323 333 325 299 269 270 244 219 220 218 209 199 189 184 182
8 3 354 339 303 273 283 302 327 340 338 338 323 308 316 312 309 322 327 311 250 189 212 253 251 247 257 258 283 293 266 233 257 280 294 298 293 327 321 226 215 204 189 181 171 155 139 194 195 210 198 169 179 206 205 191 230 289 300 331 306 279 271 246 122 281 257 248 254 235 233 278 304 316 327 330 325 305 285 248 206 210 212 202 192 184 179 178
26 36 13 351 326 325 321 325 350 351 317 316 313 279 306 315 316 334 340 332 307 266 239 241 214 230 267 291 306 296 285 275 267 267 282 285 268 289 299 277 222 206 201 185 171 165 163 221 211 221 228 226 213 218 229 207 206 245 266 271 254 265 275 254 223 246 225 202 249 253 258 288 290 307 325 321 319 320 308 284 212 194 195 189 181 176 174 174
29 15 35 14 330 318 347 324 321 320 308 295 269 258 309 328 341 339 333 324 317 313 194 278 292 243 248 273 300 278 296 310 295 265 288 284 301 322 310 321 3 193 197 179 172 175 156 219 206 204 225 239 234 231 237 222 226 242 228 230 236 244 261 248 246 252 227 197 229 252 284 292 270 290 314 310 305 306 309 310 259 186 180 173 168 168 169 171
26 5 341 349 330 276 291 301 300 304 309 304 298 327 332 336 337 328 321 320 316 307 158 294 313 306 265 223 207 247 283 313 303 293 312 295 303 332 311 324 18 41 68 142 192 206 234 297 217 199 216 248 250 251 252 65 320 275 228 222 229 237 250 244 249 257 239 218 222 259 290 289 263 270 299 299 302 316 325 330 351 152 164 162 160 164 167 170
31 16 335 334 325 293 300 309 305 302 309 324 342 341 334 332 329 328 322 310 305 314 352 318 315 315 291 207 202 237 237 250 272 264 262 308 315 323 322 286 353 11 7 256 208 219 227 244 241 166 7 308 300 321 356 11 267 246 234 240 260 288 290 269 253 261 260 245 232 242 272 280 261 247 271 292 308 330 340 345 10 40 147 158 157 161 166 172
43 29 350 336 319 308 323 327 326 318 310 350 2 333 333 331 324 326 316 295 295 318 329 320 315 314 302 220 213 240 251 250 249 248 247 251 255 261 278 290 331 345 322 305 345 232 215 205 25 40 21 299 303 339 329 310 251 222 316 4 356 329 299 277 270 271 278 265 230 221 261 269 279 278 270 296 318 335 333 337 10 14 78 147 149 159 167 172
27 18 8 357 310 300 340 335 334 340 324 344 345 327 322 319 319 326 322 307 317 324 323 319 314 313 319 299 282 285 285 277 268 265 260 249 243 249 257 263 272 288 278 301 355 329 213 116 108 59 29 287 300 323 313 319 52 22 287 78 322 294 277 281 292 287 261 238 146 113 248 254 260 246 259 310 328 329 316 329 5 356 338 151 149 156 167 172
Height
1540 1539 1538 1537 1535 1534 1533 1532 1530 1529 1528 1526 1525 1524 1522 1521 1519 1518 1517 1516 1515 1513 1513 1512 1511 1509 1508 1506 1504 1503 1501 1501 1500 1499 1498 1497 1497 1497 1497 1497 1497 1497 1497 1497 1497 1497 1498 1499 1500 1501 1501 1502 1502 1502 1504 1505 1506 1508 1507 1510 1511 1509 1507 1503 1503 1503 1504 1507 1507 1506 1509 1512 1511 1507 1506 1509 1512 1513 1515 1515 1511 1509 1508 1509 1511 1516 1519 1520
1539 1538 1537 1536 1535 1534 1533 1531 1530 1529 1528 1526 1525 1524 1522 1521 1519 1518 1516 1515 1513 1512 1512 1511 1510 1509 1507 1505 1504 1502 1500 1500 1498 1497 1496 1495 1496 1496 1496 1496 1496 1496 1496 1496 1496 1496 1496 1498 1499 1499 1499 1499 1499 1500 1501 1502 1503 1503 1503 1505 1504 1502 1501 1498 1498 1499 1500 1504 1504 1505 1507 1509 1510 1510 1509 1510 1511 1512 1514 1516 1517 1513 1511 1511 1512 1514 1517 1519
1539 1538 1537 1536 1535 1534 1533 1532 1531 1530 1528 1527 1525 1524 1522 1521 1519 1518 1516 1514 1513 1511 1510 1509 1508 1507 1506 1505 1503 1501 1500 1499 1497 1495 1495 1495 1495 1495 1496 1496 1496 1495 1495 1495 1494 1495 1495 1497 1497 1497 1498 1497 1497 1498 1498 1499 1499 1498 1499 1500 1497 1496 1497 1496 1496 1496 1498 1501 1503 1504 1504 1505 1506 1509 1512 1511 1510 1513 1514 1515 1519 1518 1514 1513 1512 1513 1515 1516
1540 1539 1538 1537 1536 1535 1533 1532 1531 1529 1527 1526 1524 1523 1521 1520 1518 1517 1515 1514 1512 1511 1509 1508 1507 1506 1505 1504 1502 1501 1500 1498 1495 1494 1494 1494 1495 1495 1495 1495 1495 1495 1494 1494 1493 1494 1494 1496 1496 1496 1497 1496 1495 1496 1496 1495 1494 1493 1493 1493 1492 1494 1496 1495 1494 1495 1497 1499 1501 1502 1502 1503 1504 1507 1509 1509 1512 1514 1513 1513 1516 1518 1515 1513 1512 1511 1513 1514
1540 1539 1538 1537 1535 1534 1532 1531 1529 1528 1526 1525 1523 1521 1520 1518 1516 1515 1513 1512 1511 1510 1509 1507 1506 1505 1504 1503 1502 1500 1500 1498 1494 1494 1494 1494 1495 1495 1495 1495 1495 1494 1494 1494 1493 1493 1494 1495 1495 1496 1496 1496 1495 1495 1492 1490 1491 1490 1488 1487 1490 1492 1493 1493 1493 1493 1495 1497 1499 1499 1500 1501 1502 1505 1505 1506 1510 1512 1512 1512 1513 1514 1513 1511 1509 1509 1511 1512
1540 1538 1537 1535 1534 1533 1531 1530 1529 1527 1526 1524 1523 1521 1519 1517 1515 1513 1512 1510 1508 1507 1507 1506 1505 1504 1502 1502 1501 1500 1501 1497 1493 1493 1494 1494 1494 1494 1495 1494 1494 1494 1493 1493 1493 1493 1493 1494 1495 1495 1496 1495 1495 1493 1489 1489 1491 1490 1485 1485 1488 1489 1490 1491 1491 1492 1493 1495 1495 1496 1497 1498 1500 1502 1501 1502 1504 1507 1511 1512 1512 1512 1510 1507 1506 1508 1509 1511
1539 1538 1536 1535 1534 1533 1532 1530 1529 1527 1526 1524 1522 1520 1518 1516 1514 1513 1510 1509 1507 1505 1505 1504 1503 1502 1501 1501 1500 1499 1499 1495 1493 1493 1493 1493 1494 1494 1494 1494 1494 1494 1493 1493 1493 1493 1493 1494 1494 1494 1495 1495 1494 1491 1490 1489 1489 1488 1483 1482 1485 1486 1487 1488 1490 1491 1492 1492 1492 1494 1494 1495 1497 1499 1499 1499 1500 1503 1508 1509 1510 1512 1511 1507 1504 1504 1505 1507
1539 1538 1536 1535 1534 1533 1531 1530 1528 1526 1524 1523 1521 1519 1517 1515 1513 1511 1509 1507 1506 1504 1503 1502 1501 1500 1499 1499 1499 1498 1496 1493 1492 1492 1492 1493 1493 1493 1494 1494 1494 1493 1492 1492 1492 1493 1493 1493 1493 1494 1495 1494 1493 1491 1490 1491 1488 1484 1480 1480 1483 1483 1483 1486 1488 1489 1490 1490 1490 1492 1492 1491 1493 1495 1496 1496 1497 1500 1503 1505 1508 1511 1513 1510 1503 1501 1503 1506
1538 1537 1537 1535 1534 1532 1531 1529 1527 1525 1523 1521 1519 1516 1514 1513 1511 1509 1508 1506 1504 1503 1502 1501 1500 1499 1498 1498 1498 1498 1494 1491 1491 1491 1491 1492 1493 1493 1493 1493 1493 1492 1492 1492 1492 1492 1492 1492 1493 1493 1494 1493 1492 1490 1489 1492 1487 1479 1478 1480 1481 1481 1482 1485 1486 1487 1488 1488 1489 1490 1490 1489 1489 1493 1494 1494 1495 1497 1499 1503 1506 1509 1510 1508 1502 1500 1502 1504
1538 1537 1536 1535 1533 1532 1530 1528 1526 1523 1521 1518 1515 1513 1511 1509 1507 1506 1505 1504 1503 1502 1500 1500 1499 1498 1498 1497 1498 1497 1491 1489 1490 1490 1490 1491 1491 1491 1491 1492 1492 1491 1491 1491 1491 1491 1492 1492 1492 1493 1493 1492 1490 1489 1488 1489 1485 1479 1480 1481 1480 1480 1480 1483 1484 1485 1487 1486 1486 1488 1489 1487 1487 1491 1492 1493 1494 1495 1496 1499 1502 1503 1503 1503 1500 1498 1499 1501
1538 1537 1535 1534 1532 1530 1528 1526 1523 1521 1518 1516 1514 1511 1509 1507 1505 1503 1502 1502 1501 1500 1499 1499 1498 1497 1496 1496 1498 1495 1489 1489 1490 1489 1489 1489 1489 1489 1490 1491 1491 1491 1491 1490 1490 1490 1491 1491 1492 1492 1492 1490 1489 1488 1486 1485 1483 1481 1482 1481 1480 1479 1478 1479 1481 1482 1484 1483 1482 1484 1486 1486 1487 1488 1487 1490 1492 1491 1492 1494 1496 1498 1498 1498 1496 1495 1497 1498
1537 1536 1534 1533 1531 1529 1527 1525 1522 1520 1517 1515 1513 1510 1508 1506 1504 1502 1501 1500 1499 1499 1498 1498 1497 1496 1495 1495 1493 1490 1488 1489 1489 1487 1487 1487 1488 1488 1488 1489 1490 1490 1490 1489 1489 1489 1490 1490 1491 1491 1490 1490 1489 1488 1484 1483 1483 1482 1482 1483 1481 1478 1476 1476 1477 1478 1480 1480 1478 1481 1486 1487 1485 1482 1480 1485 1488 1487 1488 1489 1492 1495 1496 1495 1494 1494 1495 1497
1536 1535 1533 1532 1530 1528 1526 1523 1521 1519 1516 1514 1511 1509 1507 1504 1503 1501 1499 1499 1498 1497 1497 1496 1496 1495 1495 1491 1487 1486 1486 1486 1485 1484 1485 1486 1487 1486 1487 1488 1488 1489 1489 1488 1487 1488 1489 1489 1489 1490 1490 1490 1490 1488 1484 1481 1483 1482 1481 1483 1483 1481 1477 1472 1473 1475 1475 1475 1475 1480 1488 1486 1480 1476 1475 1481 1484 1484 1483 1485 1488 1491 1493 1493 1492 1493 1493 1496
1536 1534 1532 1531 1529 1527 1525 1522 1520 1517 1514 1512 1510 1507 1505 1504 1502 1500 1499 1498 1497 1497 1496 1496 1494 1494 1493 1487 1482 1484 1483 1482 1482 1482 1483 1484 1484 1484 1485 1486 1487 1487 1487 1487 1486 1487 1487 1488 1489 1488 1488 1489 1488 1487 1484 1482 1483 1483 1483 1482 1483 1484 1477 1467 1468 1471 1472 1472 1472 1479 1485 1480 1474 1471 1472 1477 1479 1480 1479 1480 1484 1487 1489 1490 1490 1491 1491 1492
1535 1533 1531 1530 1528 1526 1523 1521 1518 1515 1513 1510 1508 1506 1504 1503 1501 1500 1499 1498 1497 1497 1496 1495 1494 1494 1492 1485 1481 1482 1482 1481 1482 1481 1482 1481 1481 1482 1483 1485 1485 1485 1486 1486 1485 1486 1486 1487 1488 1487 1487 1488 1488 1488 1487 1486 1483 1483 1487 1485 1481 1481 1475 1466 1464 1466 1468 1469 1470 1477 1480 1474 1470 1468 1469 1473 1475 1476 1476 1477 1481 1484 1486 1486 1487 1489 1491 1492
1534 1532 1530 1528 1526 1524 1522 1519 1516 1514 1512 1509 1507 1505 1504 1502 1501 1500 1499 1498 1498 1497 1496 1495 1494 1494 1492 1484 1481 1482 1482 1482 1482 1481 1482 1481 1481 1481 1482 1483 1484 1484 1484 1484 1484 1484 1485 1486 1486 1486 1486 1487 1487 1488 1490 1491 1488 1484 1487 1487 1479 1476 1474 1468 1463 1460 1463 1466 1467 1472 1474 1469 1467 1465 1466 1470 1472 1474 1475 1475 1478 1481 1483 1483 1483 1485 1489 1492
1533 1531 1529 1527 1525 1523 1521 1518 1515 1513 1511 1509 1507 1504 1503 1502 1501 1500 1499 1498 1498 1496 1496 1495 1494 1493 1489 1483 1481 1481 1482 1482 1482 1482 1481 1481 1481 1481 1481 1482 1483 1483 1482 1482 1483 1483 1484 1485 1485 1485 1485 1486 1486 1488 1493 1496 1493 1487 1486 1486 1479 1472 1471 1470 1464 1458 1460 1464 1465 1468 1467 1464 1464 1463 1463 1466 1469 1471 1472 1473 1475 1478 1480 1481 1481 1482 1484 1487
1531 1530 1528 1526 1524 1522 1519 1517 1514 1512 1510 1509 1506 1504 1503 1502 1501 1500 1498 1498 1497 1496 1496 1494 1495 1493 1484 1480 1481 1480 1481 1482 1481 1481 1481 1481 1481 1481 1481 1482 1482 1482 1481 1481 1481 1481 1483 1483 1483 1485 1485 1486 1486 1488 1493 1491 1486 1485 1485 1486 1482 1474 1469 1468 1463 1457 1458 1462 1464 1466 1464 1461 1463 1463 1461 1462 1465 1468 1468 1469 1472 1474 1476 1478 1479 1480 1481 1482
1530 1529 1527 1525 1523 1521 1518 1516 1514 1512 1510 1508 1506 1504 1502 1501 1500 1499 1498 1497 1497 1496 1495 1494 1494 1492 1485 1480 1480 1480 1480 1481 1480 1480 1480 1480 1480 1480 1481 1481 1482 1481 1482 1482 1480 1480 1481 1482 1484 1486 1485 1484 1483 1483 1484 1480 1478 1480 1481 1483 1482 1477 1471 1466 1462 1457 1457 1462 1464 1465 1463 1460 1461 1462 1460 1460 1460 1463 1465 1466 1469 1471 1472 1474 1476 1477 1478 1480
1529 1527 1526 1524 1522 1520 1517 1515 1514 1512 1510 1508 1506 1503 1501 1500 1499 1498 1496 1494 1495 1495 1493 1492 1492 1490 1485 1480 1480 1481 1480 1479 1480 1480 1480 1481 1480 1480 1480 1480 1481 1481 1482 1482 1481 1480 1480 1483 1485 1485 1484 1481 1480 1480 1479 1477 1477 1479 1479 1480 1479 1478 1474 1466 1462 1458 1456 1460 1462 1462 1461 1457 1457 1459 1458 1458 1458 1460 1462 1464 1466 1468 1469 1472 1473 1474 1475 1476
1528 1526 1525 1523 1521 1519 1517 1515 1513 1512 1510 1508 1506 1504 1503 1503 1503 1501 1496 1490 1489 1490 1489 1488 1489 1487 1483 1481 1481 1483 1484 1480 1479 1479 1480 1480 1480 1480 1479 1479 1481 1482 1482 1481 1482 1480 1480 1484 1484 1481 1480 1479 1480 1481 1480 1479 1480 1480 1481 1480 1479 1478 1475 1467 1463 1458 1455 1458 1460 1459 1458 1453 1453 1456 1455 1455 1457 1458 1459 1461 1464 1466 1467 1469 1472 1472 1472 1473
1527 1525 1524 1522 1521 1518 1516 1515 1513 1512 1511 1509 1508 1507 1507 1508 1507 1505 1502 1494 1487 1486 1486 1484 1485 1484 1481 1481 1481 1484 1488 1485 1480 1478 1478 1480 1479 1480 1479 1479 1481 1481 1481 1481 1482 1483 1484 1484 1480 1476 1476 1478 1479 1479 1480 1480 1480 1481 1481 1481 1481 1477 1474 1469 1463 1458 1454 1456 1457 1456 1454 1449 1449 1453 1453 1452 1453 1454 1455 1457 1460 1462 1464 1466 1469 1471 1472 1474
1526 1524 1523 1521 1520 1518 1516 1515 1513 1512 1511 1510 1509 1508 1508 1508 1507 1506 1505 1501 1491 1484 1483 1483 1483 1482 1480 1480 1480 1483 1486 1484 1481 1478 1477 1479 1478 1479 1480 1480 1481 1481 1481 1481 1483 1485 1486 1481 1475 1474 1476 1478 1479 1478 1479 1480 1480 1481 1480 1481 1480 1475 1476 1475 1466 1458 1454 1453 1454 1454 1452 1448 1447 1451 1451 1450 1450 1451 1453 1453 1455 1458 1460 1461 1463 1467 1469 1472
1525 1524 1522 1520 1519 1518 1516 1514 1513 1512 1511 1510 1509 1509 1509 1507 1506 1505 1503 1502 1496 1486 1483 1482 1482 1482 1481 1480 1480 1482 1482 1481 1480 1477 1477 1478 1477 1478 1479 1479 1480 1480 1481 1481 1481 1483 1482 1475 1472 1473 1475 1476 1477 1477 1477 1480 1481 1479 1477 1477 1477 1473 1474 1474 1468 1461 1458 1454 1449 1452 1458 1451 1447 1451 1450 1449 1449 1449 1448 1450 1452 1453 1455 1458 1460 1463 1465 1466
1524 1523 1521 1519 1518 1517 1515 1514 1513 1512 1511 1510 1510 1509 1509 1507 1506 1504 1503 1502 1497 1488 1484 1483 1483 1483 1482 1481 1481 1481 1481 1479 1477 1476 1476 1476 1476 1477 1477 1477 1479 1479 1480 1480 1480 1481 1477 1471 1471 1473 1473 1473 1474 1474 1474 1477 1480 1478 1474 1472 1472 1471 1470 1471 1469 1467 1470 1466 1449 1450 1464 1456 1445 1447 1448 1446 1447 1446 1445 1447 1449 1450 1452 1455 1457 1459 1462 1465
1524 1522 1521 1519 1518 1516 1515 1514 1513 1512 1511 1510 1510 1509 1508 1507 1505 1504 1504 1505 1498 1487 1484 1484 1484 1484 1482 1482 1481 1481 1481 1478 1475 1475 1475 1474 1475 1475 1475 1475 1476 1476 1477 1477 1478 1476 1471 1468 1470 1471 1471 1471 1472 1471 1470 1472 1477 1477 1470 1466 1467 1468 1468 1469 1469 1471 1477 1473 1452 1446 1459 1457 1447 1445 1443 1442 1445 1444 1444 1445 1445 1446 1448 1450 1452 1454 1458 1462
1523 1521 1520 1519 1517 1516 1515 1514 1513 1512 1511 1510 1509 1508 1507 1506 1505 1503 1502 1504 1499 1488 1486 1486 1484 1484 1482 1482 1482 1482 1482 1478 1474 1474 1473 1473 1473 1473 1474 1474 1474 1474 1473 1475 1477 1472 1466 1467 1469 1469 1470 1470 1470 1470 1467 1467 1474 1472 1464 1463 1464 1464 1466 1466 1467 1471 1472 1468 1457 1448 1450 1454 1452 1445 1439 1439 1443 1442 1442 1442 1442 1441 1443 1445 1447 1449 1452 1456
1522 1521 1520 1518 1517 1516 1515 1514 1513 1512 1511 1510 1508 1507 1506 1504 1504 1504 1501 1500 1495 1488 1487 1487 1484 1484 1483 1481 1480 1480 1480 1477 1475 1473 1471 1472 1472 1471 1473 1472 1472 1472 1470 1474 1476 1468 1465 1468 1468 1468 1470 1469 1467 1465 1463 1464 1468 1465 1459 1460 1460 1460 1462 1461 1464 1467 1466 1469 1469 1456 1451 1455 1452 1441 1435 1436 1439 1441 1439 1437 1436 1436 1438 1441 1443 1445 1447 1451
1521 1520 1519 1517 1516 1515 1514 1514 1513 1511 1511 1509 1507 1506 1505 1504 1503 1503 1503 1499 1492 1488 1488 1487 1485 1484 1483 1480 1479 1478 1477 1476 1476 1473 1470 1472 1471 1470 1471 1470 1471 1471 1469 1471 1470 1465 1465 1466 1466 1468 1469 1468 1465 1461 1460 1462 1462 1458 1457 1458 1457 1457 1458 1458 1461 1462 1464 1472 1473 1459 1454 1460 1453 1437 1433 1436 1435 1434 1433 1430 1429 1432 1435 1438 1440 1441 1442 1446
1521 1519 1518 1517 1516 1515 1514 1514 1512 1511 1510 1508 1507 1506 1504 1504 1502 1502 1504 1499 1492 1489 1488 1486 1485 1484 1483 1481 1479 1477 1476 1474 1473 1472 1471 1471 1469 1469 1469 1469 1469 1470 1469 1468 1466 1463 1463 1463 1464 1466 1466 1465 1462 1460 1459 1458 1456 1454 1455 1457 1458 1457 1456 1456 1457 1457 1464 1470 1466 1454 1450 1458 1457 1438 1428 1430 1425 1422 1425 1426 1428 1430 1433 1435 1437 1437 1438 1441
1520 1519 1518 1517 1516 1515 1514 1513 1512 1511 1509 1508 1507 1505 1504 1504 1503 1505 1504 1496 1492 1491 1488 1487 1486 1484 1483 1483 1481 1477 1474 1473 1470 1470 1470 1469 1468 1469 1469 1469 1470 1472 1472 1469 1466 1463 1462 1463 1462 1461 1462 1461 1460 1459 1457 1455 1452 1451 1453 1456 1461 1462 1459 1460 1457 1457 1467 1467 1456 1448 1444 1452 1458 1441 1425 1420 1415 1413 1418 1423 1426 1427 1428 1432 1434 1435 1434 1437
1520 1518 1517 1516 1516 1515 1513 1513 1512 1510 1508 1508 1506 1505 1504 1502 1503 1507 1503 1495 1494 1494 1490 1488 1487 1484 1483 1483 1482 1477 1473 1472 1469 1467 1468 1467 1468 1468 1469 1470 1471 1476 1478 1472 1469 1466 1462 1460 1459 1458 1458 1458 1460 1461 1457 1453 1449 1449 1452 1456 1464 1468 1466 1468 1465 1459 1463 1459 1446 1443 1444 1447 1446 1433 1420 1415 1411 1410 1413 1415 1418 1421 1424 1428 1430 1432 1432 1434
1519 1518 1517 1516 1515 1515 1514 1512 1511 1509 1508 1508 1506 1505 1504 1502 1502 1504 1502 1497 1496 1493 1489 1489 1486 1484 1483 1482 1479 1474 1472 1470 1466 1466 1466 1466 1468 1467 1467 1468 1468 1475 1479 1472 1469 1468 1464 1458 1456 1457 1455 1454 1458 1461 1460 1454 1447 1448 1450 1455 1463 1468 1470 1472 1466 1459 1458 1452 1440 1438 1445 1447 1438 1423 1413 1409 1407 1407 1407 1408 1412 1415 1419 1422 1424 1427 1429 1430
1518 1517 1517 1516 1515 1515 1513 1513 1511 1509 1509 1508 1507 1505 1504 1506 1505 1502 1501 1498 1495 1491 1490 1490 1486 1483 1481 1480 1476 1472 1471 1469 1465 1465 1466 1467 1470 1469 1467 1466 1466 1472 1475 1471 1466 1466 1468 1462 1453 1452 1452 1450 1452 1454 1454 1450 1446 1445 1443 1447 1454 1457 1461 1464 1460 1455 1454 1449 1440 1438 1444 1444 1434 1419 1406 1402 1401 1401 1402 1404 1407 1410 1412 1416 1418 1421 1424 1427
1518 1517 1516 1516 1515 1514 1513 1513 1511 1510 1510 1508 1508 1507 1507 1511 1509 1503 1501 1499 1496 1493 1490 1489 1487 1484 1480 1476 1473 1471 1473 1472 1466 1465 1467 1467 1468 1467 1464 1462 1463 1467 1469 1468 1463 1460 1465 1460 1448 1446 1447 1446 1448 1447 1445 1447 1448 1443 1436 1441 1448 1444 1446 1450 1448 1443 1442 1445 1441 1436 1435 1427 1417 1408 1398 1397 1398 1397 1399 1400 1403 1407 1408 1411 1414 1415 1419 1422
1517 1516 1516 1515 1515 1514 1513 1512 1511 1511 1511 1509 1509 1509 1510 1510 1507 1503 1500 1497 1497 1496 1492 1487 1485 1485 1482 1476 1474 1472 1473 1474 1470 1467 1465 1464 1462 1461 1459 1457 1456 1459 1460 1461 1460 1457 1461 1456 1445 1444 1444 1442 1445 1444 1442 1446 1448 1444 1440 1441 1438 1433 1437 1445 1445 1438 1439 1447 1440 1430 1429 1420 1412 1407 1397 1395 1397 1394 1396 1397 1398 1403 1405 1407 1409 1410 1414 1417
1517 1516 1515 1515 1514 1513 1513 1512 1512 1512 1511 1510 1511 1512 1509 1507 1503 1500 1497 1495 1496 1496 1495 1491 1485 1483 1483 1479 1476 1474 1473 1472 1471 1468 1464 1461 1458 1454 1453 1452 1450 1451 1452 1455 1456 1454 1457 1455 1445 1444 1444 1440 1440 1441 1440 1440 1442 1444 1443 1438 1431 1430 1434 1441 1448 1447 1449 1453 1439 1426 1429 1425 1421 1415 1398 1393 1397 1393 1393 1395 1395 1398 1401 1403 1404 1406 1410 1413
1516 1515 1515 1514 1514 1513 1513 1513 1512 1512 1511 1512 1513 1511 1508 1505 1500 1497 1495 1494 1495 1496 1496 1494 1486 1481 1482 1482 1478 1473 1472 1472 1470 1469 1465 1461 1456 1450 1448 1449 1446 1446 1447 1451 1454 1453 1455 1455 1446 1441 1442 1440 1438 1440 1439 1436 1436 1438 1437 1434 1436 1442 1442 1441 1448 1452 1454 1455 1440 1426 1425 1422 1419 1413 1398 1393 1395 1392 1390 1391 1392 1394 1396 1399 1400 1402 1407 1410
1515 1515 1514 1514 1514 1514 1514 1513 1512 1512 1512 1512 1513 1510 1505 1502 1497 1494 1494 1492 1493 1495 1495 1493 1488 1482 1479 1480 1477 1472 1471 1470 1468 1469 1466 1461 1457 1450 1446 1446 1444 1444 1445 1448 1453 1452 1454 1457 1450 1440 1440 1440 1438 1440 1441 1437 1434 1434 1434 1435 1438 1443 1444 1442 1442 1443 1447 1453 1446 1432 1426 1420 1411 1403 1395 1391 1391 1389 1389 1388 1388 1389 1390 1394 1396 1398 1403 1406
1515 1515 1514 1514 1515 1515 1514 1513 1512 1513 1513 1512 1511 1508 1504 1501 1495 1491 1491 1490 1491 1492 1491 1490 1489 1485 1479 1477 1475 1472 1470 1467 1464 1466 1465 1459 1456 1450 1444 1443 1442 1442 1442 1445 1450 1451 1455 1459 1453 1442 1440 1441 1439 1437 1437 1437 1436 1435 1436 1438 1439 1438 1439 1439 1437 1433 1437 1446 1449 1441 1431 1415 1400 1394 1391 1387 1385 1386 1386 1385 1385 1385 1386 1389 1391 1394 1397 1401
1516 1515 1515 1515 1515 1515 1515 1514 1512 1513 1514 1512 1510 1507 1503 1500 1494 1489 1488 1488 1488 1488 1487 1487 1486 1484 1480 1477 1475 1471 1469 1464 1460 1462 1461 1455 1454 1450 1443 1439 1439 1440 1440 1444 1449 1450 1453 1458 1455 1449 1447 1444 1439 1434 1432 1433 1434 1434 1434 1436 1437 1437 1438 1443 1443 1433 1428 1435 1440 1441 1433 1411 1390 1388 1388 1384 1383 1381 1380 1380 1381 1381 1383 1386 1387 1389 1392 1396
1516 1516 1515 1515 1516 1516 1515 1514 1513 1513 1513 1511 1508 1505 1501 1498 1493 1488 1486 1487 1487 1486 1485 1485 1484 1482 1481 1479 1475 1472 1468 1462 1457 1457 1455 1450 1450 1448 1440 1435 1437 1438 1439 1445 1449 1448 1450 1457 1459 1455 1450 1444 1438 1432 1431 1432 1431 1431 1432 1431 1432 1434 1436 1443 1447 1438 1429 1427 1427 1433 1435 1411 1385 1381 1384 1382 1382 1379 1376 1377 1377 1377 1379 1381 1384 1387 1390 1393
1516 1516 1515 1515 1516 1516 1515 1514 1512 1512 1512 1508 1505 1503 1500 1497 1492 1487 1485 1485 1486 1486 1486 1484 1482 1481 1480 1479 1476 1472 1468 1462 1454 1452 1449 1445 1444 1441 1435 1433 1436 1437 1439 1446 1450 1449 1451 1457 1460 1457 1449 1441 1435 1432 1431 1431 1429 1430 1431 1430 1432 1434 1433 1436 1440 1437 1433 1429 1427 1436 1438 1411 1383 1380 1383 1380 1378 1377 1375 1374 1374 1374 1375 1377 1380 1384 1387 1391
1517 1516 1516 1516 1516 1516 1516 1515 1513 1512 1510 1507 1505 1502 1499 1496 1492 1488 1486 1484 1483 1485 1485 1482 1479 1479 1477 1477 1476 1471 1468 1464 1454 1447 1445 1441 1438 1435 1432 1433 1436 1437 1439 1445 1448 1448 1452 1457 1460 1460 1451 1440 1436 1436 1435 1432 1430 1430 1430 1429 1431 1431 1432 1434 1434 1436 1436 1429 1429 1440 1436 1406 1384 1384 1386 1381 1377 1375 1373 1372 1371 1371 1372 1373 1376 1379 1383 1388
1518 1517 1516 1517 1517 1517 1516 1516 1515 1513 1511 1508 1505 1500 1496 1494 1491 1489 1486 1481 1480 1482 1482 1479 1477 1477 1475 1474 1473 1467 1463 1463 1456 1447 1444 1440 1435 1432 1431 1433 1436 1437 1438 1441 1443 1445 1450 1455 1457 1457 1449 1442 1441 1441 1439 1436 1434 1431 1427 1427 1427 1427 1431 1434 1436 1440 1440 1429 1426 1432 1424 1402 1388 1387 1386 1383 1379 1373 1369 1370 1370 1369 1370 1370 1372 1376 1380 1385
1520 1520 1519 1518 1516 1516 1517 1515 1515 1515 1513 1512 1507 1500 1497 1494 1490 1487 1485 1481 1478 1479 1479 1477 1475 1475 1473 1472 1471 1464 1459 1458 1455 1449 1445 1442 1437 1432 1430 1431 1432 1434 1436 1438 1440 1443 1448 1451 1452 1449 1444 1440 1439 1436 1435 1436 1436 1433 1428 1426 1427 1427 1428 1431 1437 1442 1438 1431 1428 1422 1412 1403 1397 1392 1388 1384 1381 1375 1369 1369 1368 1367 1369 1369 1370 1374 1377 1381
1523 1524 1524 1522 1519 1517 1516 1515 1515 1515 1514 1515 1511 1502 1498 1496 1491 1487 1484 1481 1479 1478 1477 1476 1475 1474 1471 1470 1470 1465 1458 1455 1453 1449 1445 1441 1437 1432 1429 1428 1428 1428 1430 1433 1436 1439 1444 1446 1446 1446 1442 1436 1434 1432 1431 1432 1432 1431 1429 1427 1427 1428 1428 1430 1435 1436 1430 1429 1427 1414 1406 1408 1402 1393 1389 1386 1384 1379 1372 1369 1366 1364 1367 1369 1370 1372 1376 1380
1524 1526 1526 1527 1525 1522 1519 1516 1515 1514 1512 1512 1509 1503 1499 1497 1496 1493 1487 1481 1478 1478 1477 1474 1473 1472 1470 1470 1471 1467 1459 1453 1449 1447 1444 1440 1437 1434 1429 1426 1424 1424 1427 1432 1433 1434 1437 1439 1440 1443 1441 1434 1431 1430 1427 1427 1427 1425 1425 1425 1426 1426 1428 1429 1429 1426 1422 1421 1417 1406 1405 1408 1401 1393 1390 1388 1387 1383 1376 1372 1368 1363 1365 1369 1370 1372 1376 1380
1526 1527 1526 1526 1526 1524 1522 1519 1516 1515 1512 1509 1506 1504 1501 1499 1498 1496 1490 1484 1479 1477 1477 1475 1471 1469 1467 1468 1470 1468 1461 1455 1450 1447 1445 1442 1440 1438 1434 1429 1426 1426 1430 1434 1434 1431 1432 1433 1434 1435 1434 1429 1428 1427 1424 1425 1426 1424 1423 1425 1425 1424 1425 1425 1423 1418 1414 1411 1406 1403 1404 1405 1399 1393 1391 1389 1388 1383 1377 1374 1369 1365 1366 1368 1370 1372 1375 1379
1530 1530 1528 1526 1524 1522 1521 1519 1517 1515 1512 1508 1507 1505 1503 1502 1499 1494 1490 1487 1483 1478 1477 1476 1471 1467 1465 1465 1467 1464 1457 1454 1453 1450 1446 1444 1443 1440 1437 1434 1431 1430 1431 1432 1430 1428 1429 1430 1429 1429 1428 1426 1425 1425 1425 1426 1427 1425 1423 1423 1424 1423 1422 1421 1416 1411 1409 1406 1401 1401 1405 1403 1395 1391 1392 1392 1389 1383 1379 1375 1370 1369 1369 1369 1370 1373 1375 1379
1532 1533 1531 1529 1525 1521 1520 1519 1517 1515 1512 1510 1510 1508 1504 1502 1499 1495 1489 1484 1483 1480 1478 1476 1471 1466 1462 1462 1463 1458 1450 1449 1450 1447 1443 1443 1443 1440 1438 1436 1434 1434 1432 1429 1427 1426 1427 1427 1427 1427 1428 1426 1423 1424 1425 1425 1423 1421 1420 1421 1423 1423 1420 1418 1413 1410 1411 1408 1402 1405 1410 1403 1393 1390 1392 1393 1391 1387 1382 1377 1372 1373 1375 1372 1372 1375 1377 1379
1532 1532 1531 1530 1527 1522 1521 1519 1517 1516 1514 1512 1512 1510 1507 1504 1500 1497 1491 1482 1478 1478 1477 1475 1471 1466 1462 1459 1456 1452 1447 1443 1441 1439 1438 1439 1438 1437 1437 1435 1434 1435 1434 1430 1428 1427 1426 1426 1426 1428 1430 1427 1423 1424 1424 1421 1419 1420 1420 1420 1422 1421 1418 1416 1411 1407 1406 1406 1404 1407 1408 1400 1392 1390 1390 1390 1392 1389 1383 1378 1374 1376 1379 1378 1375 1376 1379 1381